Weather History for KCEF - August, 2014

Change the Weather History Date:

Saturday, August 9, 2014

  Actual Average Record
Temperature  
Mean Temperature 66 °F -  
Max Temperature 83 °F 80 °F 96 °F (2001)
Min Temperature 50 °F 60 °F 48 °F (2002)
Cooling Degree Days 2    
Growing Degree Days 16 (Base 50)    
Moisture  
Dew Point 57 °F    
Average Humidity 73    
Maximum Humidity 98    
Minimum Humidity 38    
Precipitation  
Precipitation 0.00 in - - ()
Sea Level Pressure  
Sea Level Pressure 30.10 in    
Wind  
Wind Speed 2 mph (North)    
Max Wind Speed 10 mph    
Max Gust Speed -    
Visibility 10 miles    
Events      
Averages and records for this station are not official NWS values.
T = Trace of Precipitation, MM = Missing Value Source: NWS Daily Summary

Daily Weather History Graph

Daily Weather History Graph

Search for Another Location

Airport or City:

Trip Planner

Search our weather history database for the weather conditions in past years. The results will help you decide how hot, cold, wet, or windy it might be!

Date:

Astronomy

Aug. 09, 2014 Rise Set
Actual Time 5:51 AM EDT 7:59 PM EDT
Civil Twilight 5:20 AM EDT 8:29 PM EDT
Nautical Twilight 4:42 AM EDT 9:07 PM EDT
Astronomical Twilight 4:00 AM EDT 9:49 PM EDT
Moon 6:58 PM EDT (8/9) 4:28 AM EDT (8/9)
Length of Visible Light 15h 09m
Length of Day
14h 07m
Waxing Gibbous, 98% of the Moon is Illuminated
Aug 9
Waxing Gibbous
Aug 10
Full
Aug 17
Last Quarter
Aug 25
New
Sep 2
First Quarter

Hourly Weather History & Observations

Time (EDT) Temp. Heat Index Dew Point Humidity Pressure Visibility Wind Dir Wind Speed Gust Speed Precip Events Conditions
12:58 AM 55.0 °F - 54.3 °F 97% 30.08 in 10.0 mi Calm Calm - N/A   Clear
1:58 AM 53.6 °F - 52.3 °F 95% 30.07 in 10.0 mi Calm Calm - N/A   Clear
2:58 AM 52.9 °F - 52.0 °F 97% 30.07 in 10.0 mi Calm Calm - N/A   Clear
3:58 AM 52.3 °F - 51.8 °F 98% 30.08 in 10.0 mi ENE 2.3 mph - N/A   Clear
4:58 AM 52.5 °F - 52.0 °F 98% 30.09 in 10.0 mi Calm Calm - N/A   Clear
5:58 AM 50.2 °F - 49.6 °F 98% 30.11 in 10.0 mi East 1.2 mph - N/A   Clear
6:58 AM 54.0 °F - 53.4 °F 98% 30.12 in 10.0 mi Calm Calm - N/A   Clear
7:58 AM 61.0 °F - 57.7 °F 89% 30.13 in 10.0 mi Calm Calm - N/A   Clear
8:58 AM 66.2 °F - 58.1 °F 75% 30.13 in 10.0 mi Calm Calm - N/A   Clear
9:58 AM 72.1 °F - 60.1 °F 66% 30.12 in 10.0 mi Variable 2.3 mph - N/A   Clear
10:58 AM 77.2 °F - 59.7 °F 55% 30.12 in 10.0 mi North 8.1 mph - N/A   Clear
11:58 AM 79.2 °F - 59.2 °F 50% 30.11 in 10.0 mi Variable 6.9 mph - N/A   Clear
12:58 PM 81.9 °F 81.8 °F 58.1 °F 44% 30.10 in 10.0 mi North 10.4 mph - N/A   Scattered Clouds
1:58 PM 81.1 °F 81.1 °F 56.8 °F 43% 30.08 in 10.0 mi Variable 3.5 mph - N/A   Scattered Clouds
2:58 PM 83.7 °F 82.7 °F 55.6 °F 38% 30.08 in 10.0 mi North 9.2 mph - N/A   Scattered Clouds
3:58 PM 83.7 °F 83.0 °F 56.8 °F 40% 30.07 in 10.0 mi North 6.9 mph - N/A   Scattered Clouds
4:58 PM 83.1 °F 82.6 °F 57.4 °F 41% 30.07 in 10.0 mi WNW 6.9 mph - N/A   Scattered Clouds
5:58 PM 82.4 °F 82.2 °F 57.9 °F 43% 30.08 in 10.0 mi WNW 9.2 mph - N/A   Partly Cloudy
6:58 PM 79.0 °F - 57.7 °F 48% 30.08 in 10.0 mi NW 2.3 mph - N/A   Clear
7:58 PM 74.1 °F - 61.5 °F 65% 30.09 in 10.0 mi NNE 2.3 mph - N/A   Partly Cloudy
8:58 PM 63.5 °F - 61.2 °F 92% 30.10 in 10.0 mi NE 2.3 mph - N/A   Clear
9:58 PM 63.5 °F - 62.2 °F 96% 30.12 in 10.0 mi NE 2.3 mph - N/A   Clear
10:58 PM 59.9 °F - 59.2 °F 97% 30.12 in 10.0 mi Calm Calm - N/A   Clear
11:58 PM 61.0 °F - 59.9 °F 96% 30.13 in 10.0 mi Calm Calm - N/A   Clear